Time_in_sec,gx,gy,gz
1326901919.76547098,0.00144336,0.01855021,-0.99982689
1326901919.82450938,0.00132009,0.01867163,-0.99982480
1326901919.86550069,0.00140256,0.01857068,-0.99982657
1326901919.91756606,0.00137764,0.01850687,-0.99982778
1326901919.96522069,0.00176015,0.01830299,-0.99983094
1326901920.01656175,0.00161419,0.01822760,-0.99983256
1326901920.07765889,0.00156543,0.01833327,-0.99983071
1326901920.11655474,0.00134186,0.01857386,-0.99982659
1326901920.17754722,0.00098379,0.01851685,-0.99982806
1326901920.21668434,0.00139960,0.01860286,-0.99982597
1326901920.27688432,0.00142432,0.01857301,-0.99982649
1326901920.32558203,0.00130034,0.01861552,-0.99982587
1326901920.36552835,0.00146603,0.01861163,-0.99982571
1326901920.42465186,0.00148925,0.01857450,-0.99982637
1326901920.46513486,0.00154205,0.01874916,-0.99982303
1326901920.52558041,0.00163850,0.01867865,-0.99982420
1326901920.57750797,0.00156534,0.01885588,-0.99982099
1326901920.61758924,0.00133652,0.01891286,-0.99982024
1326901920.66457462,0.00138590,0.01894780,-0.99981951
1326901920.72553015,0.00175136,0.01872704,-0.99982310
1326901920.77670312,0.00169268,0.01857641,-0.99982601
1326901920.82556462,0.00156046,0.01867590,-0.99982437
1326901920.86550570,0.00146955,0.01864293,-0.99982513
1326901920.91827130,0.00149019,0.01867611,-0.99982448
1326901920.96453166,0.00156858,0.01867709,-0.99982434
1326901921.01659131,0.00169249,0.01854423,-0.99982661
1326901921.06564474,0.00179123,0.01872884,-0.99982300
1326901921.11757708,0.00176588,0.01894228,-0.99981902
1326901921.16495323,0.00179083,0.01923288,-0.99981343
1326901921.22463512,0.00214213,0.01902613,-0.99981669
1326901921.26479816,0.00202449,0.01900819,-0.99981728
1326901921.32475996,0.00201843,0.01911994,-0.99981516
1326901921.37753654,0.00186186,0.01910317,-0.99981578
1326901921.41749668,0.00197437,0.01918665,-0.99981397
1326901921.47651553,0.00232579,0.01893916,-0.99981793
1326901921.52549911,0.00238470,0.01930560,-0.99981079
1326901921.57710314,0.00239148,0.01934924,-0.99980993
1326901921.61756468,0.00223067,0.01928708,-0.99981150
1326901921.67662120,0.00219287,0.01951143,-0.99980723
1326901921.72529984,0.00246450,0.01949323,-0.99980695
1326901921.76566386,0.00268482,0.01959124,-0.99980447
1326901921.82553124,0.00276764,0.01959241,-0.99980422
1326901921.87755513,0.00289896,0.01948901,-0.99980587
1326901921.92866588,0.00292973,0.01950177,-0.99980553
1326901921.96467161,0.00310240,0.01929728,-0.99980898
1326901922.02567029,0.00307201,0.01924785,-0.99981002
1326901922.07657576,0.00295519,0.01937101,-0.99980800
1326901922.11542439,0.00308725,0.01945441,-0.99980598
1326901922.17489409,0.00300694,0.01968186,-0.99980177
1326901922.22556734,0.00309850,0.01977388,-0.99979968
1326901922.27658939,0.00310887,0.01991797,-0.99979678
1326901922.32550669,0.00312875,0.02040287,-0.99978694
1326901922.37759495,0.00307454,0.02035115,-0.99978817
1326901922.42463541,0.00325200,0.02045829,-0.99978542
1326901922.48155046,0.00331743,0.02051726,-0.99978399
1326901922.52543736,0.00329496,0.02023330,-0.99978986
1326901922.57751226,0.00327694,0.02042022,-0.99978612
1326901922.61657286,0.00322769,0.02063124,-0.99978194
1326901922.67656112,0.00318541,0.02069848,-0.99978069
1326901922.72965956,0.00356585,0.02057672,-0.99978192
1326901922.77755809,0.00358071,0.02051995,-0.99978303
1326901922.82455826,0.00351151,0.02047366,-0.99978423
1326901922.87653971,0.00359351,0.02062158,-0.99978089
1326901922.92452931,0.00347153,0.02116324,-0.99977001
1326901922.97754669,0.00372997,0.02105681,-0.99977132
1326901923.02452636,0.00361925,0.02125816,-0.99976747
1326901923.07658839,0.00356833,0.02148612,-0.99976278
1326901923.11752915,0.00343883,0.02117146,-0.99976995
1326901923.17662907,0.00353935,0.02129037,-0.99976707
1326901923.22456717,0.00391115,0.02117508,-0.99976813
1326901923.27713013,0.00407436,0.02137129,-0.99976331
1326901923.32466125,0.00389649,0.02151428,-0.99976095
1326901923.37754178,0.00395094,0.02135289,-0.99976419
1326901923.42603779,0.00381278,0.02131670,-0.99976550
1326901923.47659540,0.00429602,0.02106872,-0.99976880
1326901923.52591944,0.00436654,0.02112573,-0.99976729
1326901923.57766271,0.00439554,0.02128005,-0.99976389
1326901923.61721301,0.00423499,0.02135266,-0.99976304
1326901923.67751908,0.00416667,0.02134526,-0.99976348
1326901923.72467399,0.00431676,0.02142379,-0.99976116
1326901923.77751923,0.00440668,0.02140153,-0.99976125
1326901923.82451296,0.00447755,0.02161721,-0.99975629
1326901923.87661648,0.00423367,0.02152398,-0.99975937
1326901923.92496610,0.00410690,0.02138773,-0.99976282
1326901923.97764540,0.00433102,0.02166562,-0.99975589
1326901924.02558255,0.00430098,0.02162638,-0.99975687
1326901924.07751083,0.00436824,0.02158326,-0.99975751
1326901924.11763763,0.00432670,0.02147395,-0.99976005
1326901924.17751002,0.00433515,0.02161449,-0.99975698
1326901924.22452569,0.00421299,0.02121034,-0.99976616
1326901924.27665734,0.00413634,0.02139294,-0.99976259
1326901924.32554245,0.00425010,0.02122152,-0.99976576
1326901924.37654376,0.00422834,0.02117869,-0.99976677
1326901924.42898107,0.00404979,0.02115231,-0.99976806
1326901924.47754383,0.00385146,0.02080402,-0.99977615
1326901924.52859974,0.00403336,0.02095797,-0.99977222
1326901924.57765245,0.00366764,0.02105913,-0.99977150
1326901924.61756611,0.00385386,0.02124735,-0.99976682
1326901924.67655420,0.00378656,0.02116421,-0.99976884
1326901924.72550631,0.00413866,0.02108063,-0.99976921
1326901924.77757406,0.00407672,0.02132993,-0.99976418
1326901924.82959771,0.00400474,0.02137185,-0.99976358
1326901924.87790585,0.00385844,0.02150962,-0.99976120
1326901924.92863202,0.00402539,0.02146336,-0.99976153
1326901924.97751331,0.00379165,0.02144091,-0.99976293
1326901925.02474117,0.00367831,0.02147092,-0.99976271
1326901925.07758498,0.00385432,0.02148414,-0.99976176
1326901925.11756587,0.00377194,0.02165569,-0.99975837
1326901925.17662644,0.00364424,0.02159782,-0.99976010
1326901925.22457218,0.00418541,0.02182238,-0.99975310
1326901925.27750683,0.00434078,0.02213217,-0.99974563
1326901925.32473063,0.00435755,0.02203454,-0.99974771
1326901925.37604713,0.00452766,0.02218872,-0.99974355
1326901925.42555881,0.00444840,0.02231956,-0.99974099
1326901925.47656846,0.00470558,0.02218830,-0.99974274
1326901925.52552676,0.00452122,0.02231686,-0.99974072
1326901925.57654452,0.00477481,0.02227455,-0.99974049
1326901925.61756206,0.00471247,0.02230469,-0.99974011
1326901925.68167496,0.00472967,0.02242141,-0.99973742
1326901925.72456741,0.00495512,0.02223390,-0.99974052
1326901925.77752256,0.00516634,0.02205115,-0.99974349
1326901925.82453465,0.00522994,0.02197906,-0.99974475
1326901925.87715578,0.00545748,0.02199140,-0.99974326
1326901925.92549157,0.00554650,0.02183499,-0.99974620
1326901925.97662497,0.00544194,0.02198759,-0.99974343
1326901926.02463818,0.00516391,0.02192822,-0.99974621
1326901926.07753587,0.00496080,0.02170988,-0.99975201
1326901926.11667609,0.00514047,0.02184612,-0.99974813
1326901926.17751479,0.00496912,0.02171853,-0.99975178
1326901926.22490263,0.00473511,0.02141596,-0.99975944
1326901926.27649713,0.00457469,0.02134121,-0.99976178
1326901926.32551336,0.00454477,0.02156838,-0.99975705
1326901926.37651968,0.00466592,0.02147794,-0.99975843
1326901926.42476177,0.00471177,0.02150323,-0.99975768
1326901926.48568964,0.00467173,0.02123181,-0.99976366
1326901926.52449822,0.00435616,0.02123887,-0.99976494
1326901926.57751107,0.00446434,0.02143917,-0.99976019
1326901926.61737084,0.00446625,0.02154325,-0.99975794
1326901926.67653537,0.00444321,0.02160946,-0.99975662
1326901926.72554970,0.00469151,0.02183100,-0.99975067
1326901926.77712226,0.00488477,0.02215991,-0.99974251
1326901926.82556987,0.00499127,0.02232319,-0.99973835
1326901926.87754130,0.00485750,0.02229136,-0.99973972
1326901926.92505288,0.00514236,0.02230416,-0.99973801
1326901926.97633624,0.00497486,0.02204598,-0.99974458
1326901927.02514243,0.00480605,0.02194797,-0.99974756
1326901927.07762504,0.00488999,0.02211644,-0.99974344
1326901927.11750865,0.00482809,0.02197518,-0.99974686
1326901927.17689133,0.00493837,0.02211907,-0.99974315
1326901927.22486281,0.00489313,0.02243127,-0.99973641
1326901927.27752709,0.00491151,0.02232672,-0.99973866
1326901927.32557917,0.00493145,0.02264967,-0.99973130
1326901927.37751174,0.00488345,0.02282170,-0.99972762
1326901927.42476416,0.00496911,0.02269616,-0.99973006
1326901927.47755623,0.00499302,0.02305312,-0.99972177
1326901927.52972269,0.00508419,0.02299752,-0.99972259
1326901927.56554055,0.00520879,0.02277647,-0.99972701
1326901927.61653924,0.00527773,0.02287436,-0.99972442
1326901927.66551781,0.00533266,0.02279666,-0.99972590
1326901927.71653771,0.00568560,0.02215374,-0.99973841
1326901927.76965237,0.00575639,0.02201504,-0.99974107
1326901927.81755137,0.00584649,0.02233175,-0.99973352
1326901927.86569810,0.00587934,0.02240208,-0.99973175
1326901927.92550945,0.00598867,0.02234434,-0.99973240
1326901927.96647453,0.00601512,0.02244914,-0.99972989
1326901928.01663041,0.00589967,0.02244808,-0.99973060
1326901928.06952906,0.00588945,0.02231990,-0.99973353
1326901928.11875987,0.00602819,0.02213592,-0.99973680
1326901928.16558647,0.00629928,0.02213115,-0.99973523
1326901928.21749759,0.00641257,0.02200969,-0.99973719
1326901928.26862311,0.00643064,0.02193843,-0.99973864
1326901928.31750584,0.00633877,0.02200164,-0.99973784
1326901928.36459088,0.00627100,0.02194945,-0.99973941
1326901928.41757035,0.00622601,0.02229642,-0.99973202
1326901928.46567369,0.00599036,0.02223401,-0.99973485
1326901928.51606846,0.00594055,0.02216460,-0.99973669
1326901928.56451654,0.00598006,0.02217606,-0.99973620
1326901928.61751986,0.00633187,0.02202338,-0.99973740
1326901928.66574264,0.00629527,0.02219801,-0.99973377
1326901928.71663213,0.00632415,0.02193952,-0.99973930
1326901928.76560330,0.00642431,0.02203847,-0.99973648
1326901928.81657267,0.00639397,0.02210417,-0.99973523
1326901928.86551404,0.00644417,0.02220950,-0.99973257
1326901928.91656852,0.00634385,0.02222927,-0.99973277
1326901928.96544671,0.00671644,0.02180033,-0.99973978
1326901929.01749086,0.00670119,0.02185961,-0.99973859
1326901929.06568074,0.00655914,0.02207512,-0.99973480
1326901929.11751580,0.00651454,0.02196864,-0.99973744
1326901929.16611910,0.00642450,0.02198831,-0.99973759
1326901929.21711469,0.00641434,0.02181547,-0.99974144
1326901929.26551986,0.00645124,0.02175729,-0.99974247
1326901929.31667042,0.00638417,0.02175963,-0.99974285
1326901929.36464357,0.00637285,0.02202156,-0.99973718
1326901929.41702247,0.00631889,0.02204999,-0.99973690
1326901929.46517634,0.00603373,0.02210583,-0.99973743
1326901929.51750517,0.00599763,0.02224351,-0.99973459
1326901929.56458044,0.00584074,0.02237413,-0.99973261
1326901929.61651540,0.00597808,0.02225775,-0.99973439
1326901929.66951680,0.00586558,0.02250387,-0.99972955
1326901929.72063422,0.00560268,0.02215147,-0.99973893
1326901929.76451564,0.00562015,0.02219094,-0.99973795
1326901929.81755185,0.00553999,0.02207342,-0.99974100
1326901929.86564541,0.00541886,0.02191422,-0.99974517
1326901929.91751862,0.00516090,0.02215271,-0.99974128
1326901929.96454167,0.00495671,0.02188523,-0.99974820
1326901930.01689768,0.00489511,0.02206194,-0.99974462
1326901930.06472516,0.00489714,0.02192083,-0.99974772
1326901930.11663556,0.00459485,0.02197883,-0.99974788
1326901930.16558862,0.00457254,0.02197427,-0.99974808
1326901930.21752143,0.00471282,0.02159423,-0.99975571
1326901930.26968741,0.00470503,0.02166648,-0.99975418
1326901930.31750512,0.00451941,0.02191476,-0.99974963
1326901930.36637139,0.00451120,0.02194368,-0.99974903
1326901930.41615677,0.00443150,0.02215447,-0.99974474
1326901930.46551037,0.00402564,0.02221003,-0.99974522
1326901930.51664114,0.00396908,0.02238237,-0.99974160
1326901930.56557131,0.00402421,0.02242695,-0.99974039
1326901930.61675620,0.00404443,0.02252318,-0.99973814
1326901930.66485596,0.00412710,0.02244095,-0.99973965
1326901930.71750641,0.00392430,0.02187660,-0.99975298
1326901930.76462841,0.00375751,0.02213822,-0.99974786
1326901930.81664753,0.00390458,0.02232028,-0.99974325
1326901930.86555886,0.00406783,0.02247842,-0.99973905
1326901930.91666365,0.00401618,0.02259662,-0.99973660
1326901930.96467209,0.00406772,0.02254193,-0.99973762
1326901931.01662350,0.00401233,0.02257074,-0.99973720
1326901931.06550932,0.00422692,0.02259672,-0.99973573
1326901931.11762094,0.00414193,0.02280193,-0.99973142
1326901931.16570449,0.00402861,0.02283071,-0.99973123
1326901931.21659851,0.00397880,0.02284073,-0.99973120
1326901931.26551723,0.00390074,0.02283899,-0.99973155
1326901931.31649876,0.00388106,0.02282540,-0.99973193
1326901931.36447501,0.00403400,0.02283747,-0.99973105
1326901931.42549109,0.00410050,0.02300779,-0.99972688
1326901931.46554375,0.00392634,0.02266587,-0.99973539
1326901931.51750159,0.00382430,0.02282791,-0.99973209
1326901931.56455469,0.00367996,0.02278805,-0.99973355
1326901931.61656857,0.00348713,0.02289192,-0.99973186
1326901931.66550183,0.00345698,0.02311446,-0.99972685
1326901931.71705365,0.00355271,0.02294553,-0.99973040
1326901931.76455688,0.00362288,0.02307056,-0.99972727
1326901931.81652927,0.00373006,0.02312349,-0.99972566
1326901931.86452246,0.00393835,0.02319979,-0.99972309
1326901931.91750574,0.00396689,0.02300667,-0.99972744
1326901931.96514392,0.00408725,0.02279908,-0.99973171
1326901932.01681972,0.00393498,0.02286452,-0.99973083
1326901932.06554651,0.00395544,0.02292144,-0.99972944
1326901932.11650872,0.00381390,0.02299878,-0.99972822
1326901932.16553521,0.00395723,0.02305034,-0.99972647
1326901932.21721840,0.00388636,0.02264089,-0.99973611
1326901932.26576090,0.00375423,0.02292592,-0.99973012
1326901932.31751847,0.00368439,0.02294178,-0.99973001
1326901932.36453986,0.00376984,0.02294950,-0.99972952
1326901932.41665697,0.00357414,0.02296403,-0.99972990
1326901932.46551633,0.00364258,0.02245912,-0.99974113
1326901932.51756001,0.00372596,0.02247094,-0.99974055
1326901932.56456184,0.00380970,0.02249877,-0.99973961
1326901932.61753798,0.00385279,0.02240973,-0.99974145
1326901932.66554022,0.00381651,0.02221810,-0.99974586
1326901932.71750546,0.00351632,0.02240401,-0.99974281
1326901932.76450539,0.00370471,0.02248179,-0.99974039
1326901932.81665111,0.00355806,0.02245333,-0.99974156
1326901932.86951494,0.00361663,0.02242336,-0.99974202
1326901932.91751266,0.00359778,0.02236304,-0.99974344
1326901932.96464396,0.00394170,0.02221346,-0.99974548
1326901933.01761365,0.00406857,0.02231740,-0.99974266
1326901933.06463170,0.00393035,0.02234352,-0.99974263
1326901933.11750340,0.00418458,0.02238850,-0.99974059
1326901933.16566348,0.00425300,0.02251140,-0.99973754
1326901933.21765661,0.00430328,0.02241921,-0.99973940
1326901933.26562119,0.00425638,0.02234771,-0.99974120
1326901933.31663680,0.00393093,0.02232304,-0.99974308
1326901933.36553216,0.00390788,0.02249681,-0.99973928
1326901933.41750240,0.00362414,0.02273103,-0.99973505
1326901933.46564603,0.00346010,0.02257146,-0.99973924
1326901933.51751733,0.00333212,0.02247363,-0.99974188
1326901933.56566477,0.00324246,0.02251101,-0.99974134
1326901933.61667418,0.00305654,0.02241297,-0.99974413
1326901933.66552162,0.00295194,0.02236752,-0.99974546
1326901933.72064638,0.00257639,0.02240369,-0.99974569
1326901933.76956415,0.00253626,0.02263473,-0.99974058
1326901933.81651855,0.00250300,0.02281784,-0.99973651
1326901933.86555696,0.00256696,0.02273745,-0.99973818
1326901933.91750431,0.00261176,0.02292584,-0.99973376
1326901933.96463394,0.00250870,0.02285491,-0.99973564
1326901934.01655793,0.00271833,0.02280228,-0.99973630
1326901934.06452632,0.00269716,0.02289673,-0.99973420
1326901934.11665106,0.00261284,0.02302734,-0.99973142
1326901934.16555977,0.00230450,0.02305215,-0.99973161
1326901934.21650553,0.00257992,0.02291378,-0.99973412
1326901934.26454544,0.00262853,0.02294879,-0.99973319
1326901934.31750751,0.00274276,0.02307206,-0.99973004
1326901934.36599016,0.00276281,0.02297444,-0.99973224
1326901934.41663623,0.00262946,0.02320737,-0.99972721
1326901934.46950912,0.00242766,0.02288954,-0.99973505
1326901934.52059364,0.00241699,0.02298385,-0.99973291
1326901934.56536102,0.00235997,0.02295371,-0.99973374
1326901934.61677527,0.00211893,0.02308876,-0.99973117
1326901934.66602635,0.00204630,0.02326523,-0.99972723
1326901934.71751547,0.00228659,0.02285872,-0.99973609
1326901934.76498008,0.00204922,0.02276332,-0.99973878
1326901934.81659317,0.00202128,0.02282684,-0.99973739
1326901934.86552119,0.00211070,0.02281688,-0.99973743
1326901934.91652966,0.00192246,0.02305086,-0.99973245
1326901934.96649384,0.00223559,0.02286838,-0.99973598
1326901935.01753092,0.00228269,0.02296699,-0.99973362
1326901935.06457925,0.00208866,0.02283197,-0.99973713
1326901935.11749125,0.00214125,0.02302771,-0.99973253
1326901935.16568065,0.00199070,0.02304610,-0.99973242
1326901935.21754646,0.00216569,0.02276385,-0.99973852
1326901935.26551032,0.00212235,0.02292021,-0.99973504
1326901935.32065725,0.00198831,0.02286804,-0.99973651
1326901935.36464214,0.00187359,0.02281419,-0.99973797
1326901935.41708350,0.00182959,0.02286153,-0.99973697
1326901935.46464109,0.00191922,0.02266351,-0.99974131
1326901935.51752424,0.00179422,0.02273417,-0.99973994
1326901935.56553698,0.00162567,0.02275848,-0.99973967
1326901935.61756063,0.00168079,0.02285085,-0.99973747
1326901935.66552854,0.00164044,0.02310651,-0.99973166
1326901935.71415281,0.00202218,0.02307956,-0.99973159
1326901935.76565361,0.00181263,0.02344923,-0.99972339
1326901935.81753302,0.00198830,0.02349439,-0.99972199
1326901935.86454177,0.00200863,0.02351771,-0.99972140
1326901935.91751814,0.00203541,0.02359657,-0.99971949
1326901935.96554065,0.00180185,0.02380640,-0.99971496
1326901936.01664376,0.00187154,0.02386740,-0.99971338
1326901936.06552982,0.00176343,0.02382885,-0.99971450
1326901936.11653256,0.00172465,0.02384551,-0.99971417
1326901936.16555548,0.00159283,0.02388035,-0.99971355
1326901936.22567654,0.00159303,0.02415154,-0.99970704
1326901936.26566219,0.00137732,0.02430566,-0.99970363
1326901936.31750250,0.00143964,0.02429175,-0.99970388
1326901936.36850405,0.00153435,0.02455185,-0.99969738
1326901936.41685033,0.00139101,0.02469719,-0.99969401
1326901936.46548653,0.00032108,0.02458802,-0.99969762
1326901936.51772618,0.00012455,0.02461557,-0.99969698
1326901936.56950665,0.00015751,0.02464188,-0.99969633
1326901936.61752677,0.00012106,0.02481338,-0.99969209
1326901936.66551352,-0.00009466,0.02495760,-0.99968851
1326901936.71751118,0.00003534,0.02456230,-0.99969830
1326901936.76852417,-0.00000451,0.02470599,-0.99969476
1326901936.81649232,-0.00019495,0.02489985,-0.99968993
1326901936.86554193,-0.00029867,0.02498970,-0.99968766
1326901936.91649580,-0.00052929,0.02486868,-0.99969059
1326901936.96463680,-0.00010709,0.02485626,-0.99969103
1326901937.01649690,-0.00005239,0.02496547,-0.99968831
1326901937.06456637,-0.00006713,0.02506518,-0.99968582
1326901937.11752796,-0.00012150,0.02512250,-0.99968437
1326901937.16556072,-0.00007281,0.02506811,-0.99968574
1326901937.21663070,-0.00067930,0.02505884,-0.99968575
1326901937.26552343,-0.00091245,0.02509963,-0.99968454
1326901937.31660724,-0.00085001,0.02506547,-0.99968545
1326901937.36455750,-0.00082451,0.02525925,-0.99968059
1326901937.41732574,-0.00094263,0.02547311,-0.99967506
1326901937.46454692,-0.00063601,0.02570511,-0.99966937
1326901937.51737905,-0.00072940,0.02589843,-0.99966431
1326901937.56550646,-0.00049814,0.02613862,-0.99965820
1326901937.61659122,-0.00063522,0.02619472,-0.99965666
